| time (UTC) | temp F | wind direction | speed MPH | gust MPH | rain 1hr in | rain 24hr in | rain mn in | humidity % | barometer mb |
| 20260507114517 | 61 | 102 | 0.0 | 1.0 | 0.00 | 0.00 | 0.01 | 98 | 1012.9 |
| 20260507114017 | 61 | 113 | 0.0 | 2.0 | 0.00 | 0.00 | 0.01 | 98 | 1012.9 |
| 20260507113517 | 61 | 349 | 0.0 | 8.0 | 0.00 | 0.00 | 0.01 | 98 | 1012.8 |
| 20260507113017 | 60 | 360 | 1.0 | 8.0 | 0.00 | 0.00 | 0.01 | 98 | 1012.7 |
| 20260507112517 | 61 | 23 | 5.0 | 5.0 | 0.00 | 0.00 | 0.01 | 98 | 1012.7 |
| 20260507112017 | 61 | 342 | 0.0 | 4.0 | 0.00 | 0.00 | 0.01 | 98 | 1012.7 |
| 20260507111518 | 60 | 18 | 3.0 | 7.0 | 0.00 | 0.00 | 0.01 | 98 | 1012.6 |
| 20260507111017 | 60 | 31 | 0.0 | 10.0 | 0.00 | 0.00 | 0.01 | 98 | 1012.6 |
| 20260507110517 | 60 | 342 | 3.0 | 10.0 | 0.00 | 0.00 | 0.01 | 97 | 1012.6 |
| 20260507110017 | 61 | 309 | 0.0 | 9.0 | 0.00 | 0.00 | 0.01 | 97 | 1012.6 |
| 20260507105517 | 61 | 337 | 7.0 | 15.0 | 0.00 | 0.00 | 0.01 | 97 | 1012.8 |
| 20260507105018 | 61 | 291 | 9.0 | 10.0 | 0.00 | 0.00 | 0.01 | 97 | 1012.9 |
| 20260507104518 | 61 | 38 | 3.0 | 11.0 | 0.00 | 0.00 | 0.01 | 97 | 1012.3 |
| 20260507104017 | 62 | 346 | 0.0 | 8.0 | 0.00 | 0.00 | 0.01 | 97 | 1012.1 |
| 20260507103517 | 62 | 37 | 3.0 | 6.0 | 0.00 | 0.00 | 0.01 | 97 | 1011.8 |
| 20260507103017 | 62 | 350 | 0.0 | 4.0 | 0.00 | 0.00 | 0.01 | 97 | 1011.8 |
| 20260507102517 | 62 | 16 | 1.0 | 8.0 | 0.00 | 0.00 | 0.01 | 97 | 1011.7 |
| 20260507102017 | 63 | 11 | 7.0 | 10.0 | 0.00 | 0.00 | 0.01 | 97 | 1011.6 |
| 20260507101518 | 63 | 329 | 3.0 | 11.0 | 0.00 | 0.00 | 0.01 | 97 | 1011.7 |
| 20260507101017 | 64 | 353 | 3.0 | 9.0 | 0.00 | 0.00 | 0.01 | 97 | 1011.6 |
| 20260507100517 | 64 | 323 | 3.0 | 11.0 | 0.00 | 0.00 | 0.01 | 97 | 1011.2 |
| 20260507100018 | 65 | 291 | 3.0 | 8.0 | 0.00 | 0.00 | 0.01 | 97 | 1011.2 |
| 20260507095517 | 65 | 329 | 4.0 | 5.0 | 0.00 | 0.00 | 0.01 | 98 | 1011.1 |
| 20260507095017 | 65 | 0 | 0.0 | 0.0 | 0.00 | 0.00 | 0.01 | 98 | 1011.0 |
| 20260507094518 | 65 | 323 | 0.0 | 5.0 | 0.00 | 0.00 | 0.01 | 98 | 1011.0 |
| 20260507094017 | 65 | 16 | 0.0 | 5.0 | 0.00 | 0.00 | 0.01 | 98 | 1011.1 |
| 20260507093518 | 65 | 18 | 1.0 | 1.0 | 0.00 | 0.00 | 0.01 | 98 | 1011.3 |
| 20260507093017 | 65 | 330 | 0.0 | 9.0 | 0.00 | 0.00 | 0.01 | 98 | 1011.3 |
| 20260507092517 | 66 | 11 | 0.0 | 1.0 | 0.00 | 0.00 | 0.01 | 98 | 1011.2 |
| 20260507092017 | 66 | 0 | 0.0 | 0.0 | 0.00 | 0.00 | 0.01 | 98 | 1011.2 |
| 20260507091517 | 66 | 18 | 0.0 | 1.0 | 0.00 | 0.00 | 0.01 | 98 | 1011.2 |
| 20260507091017 | 66 | 86 | 0.0 | 3.0 | 0.00 | 0.00 | 0.01 | 98 | 1011.2 |
| 20260507090517 | 66 | 347 | 0.0 | 2.0 | 0.00 | 0.00 | 0.01 | 97 | 1011.2 |
| 20260507090017 | 66 | 0 | 0.0 | 0.0 | 0.00 | 0.00 | 0.01 | 97 | 1011.1 |
| 20260507085518 | 65 | 0 | 0.0 | 0.0 | 0.00 | 0.00 | 0.01 | 97 | 1011.2 |
| 20260507085017 | 66 | 30 | 0.0 | 2.0 | 0.00 | 0.00 | 0.01 | 97 | 1011.0 |
| 20260507084517 | 66 | 82 | 0.0 | 2.0 | 0.00 | 0.00 | 0.01 | 97 | 1011.0 |
| 20260507084017 | 66 | 96 | 2.0 | 6.0 | 0.00 | 0.00 | 0.00 | 97 | 1011.2 |
| 20260507083517 | 66 | 85 | 0.0 | 5.0 | 0.00 | 0.00 | 0.00 | 97 | 1010.8 |
| 20260507083018 | 66 | 0 | 0.0 | 0.0 | 0.00 | 0.00 | 0.00 | 97 | 1010.8 |
| 20260507082517 | 66 | 0 | 0.0 | 0.0 | 0.00 | 0.00 | 0.00 | 97 | 1010.6 |
| 20260507082017 | 66 | 90 | 0.0 | 7.0 | 0.00 | 0.00 | 0.00 | 97 | 1010.7 |
| 20260507081517 | 66 | 322 | 0.0 | 2.0 | 0.00 | 0.00 | 0.00 | 97 | 1010.6 |
| 20260507081017 | 66 | 20 | 0.0 | 8.0 | 0.00 | 0.00 | 0.00 | 97 | 1010.9 |
| 20260507080517 | 66 | 4 | 0.0 | 4.0 | 0.00 | 0.00 | 0.00 | 97 | 1010.9 |
| 20260507080017 | 66 | 34 | 0.0 | 5.0 | 0.00 | 0.00 | 0.00 | 97 | 1010.9 |
| 20260507075517 | 66 | 107 | 1.0 | 2.0 | 0.00 | 0.00 | 0.00 | 97 | 1010.9 |
| 20260507075017 | 66 | 102 | 0.0 | 3.0 | 0.00 | 0.00 | 0.00 | 97 | 1010.9 |
| 20260507074517 | 67 | 88 | 1.0 | 6.0 | 0.00 | 0.00 | 0.00 | 97 | 1011.0 |
| 20260507074018 | 66 | 100 | 4.0 | 3.0 | 0.00 | 0.00 | 0.00 | 97 | 1010.9 |
| 20260507073517 | 67 | 102 | 1.0 | 8.0 | 0.00 | 0.00 | 0.00 | 97 | 1011.2 |
| 20260507073017 | 67 | 85 | 1.0 | 4.0 | 0.00 | 0.00 | 0.00 | 97 | 1011.0 |
| 20260507072517 | 67 | 76 | 0.0 | 4.0 | 0.00 | 0.00 | 0.00 | 97 | 1011.1 |
| 20260507072017 | 67 | 73 | 1.0 | 4.0 | 0.00 | 0.00 | 0.00 | 97 | 1010.9 |
| 20260507071517 | 67 | 112 | 1.0 | 5.0 | 0.00 | 0.00 | 0.00 | 97 | 1010.5 |
| 20260507071017 | 67 | 25 | 0.0 | 2.0 | 0.00 | 0.00 | 0.00 | 97 | 1010.6 |
| 20260507070517 | 67 | 117 | 1.0 | 6.0 | 0.00 | 0.00 | 0.00 | 97 | 1010.4 |
| 20260507070017 | 67 | 95 | 1.0 | 4.0 | 0.00 | 0.00 | 0.00 | 97 | 1010.4 |
| 20260507065517 | 67 | 349 | 0.0 | 5.0 | 0.00 | 0.00 | 0.00 | 97 | 1011.0 |
| 20260507065016 | 67 | 346 | 5.0 | 5.0 | 0.00 | 0.00 | 0.00 | 97 | 1010.7 |
| 20260507064517 | 67 | 89 | 2.0 | 4.0 | 0.00 | 0.00 | 0.00 | 97 | 1011.5 |
| 20260507064017 | 67 | 127 | 3.0 | 3.0 | 0.00 | 0.00 | 0.00 | 97 | 1011.7 |
| 20260507063518 | 67 | 79 | 0.0 | 4.0 | 0.00 | 0.00 | 0.00 | 97 | 1011.6 |
| 20260507063017 | 67 | 106 | 4.0 | 3.0 | 0.00 | 0.00 | 0.00 | 97 | 1011.6 |
| 20260507062517 | 67 | 82 | 1.0 | 4.0 | 0.00 | 0.00 | 0.00 | 97 | 1011.6 |
| 20260507062017 | 67 | 28 | 1.0 | 1.0 | 0.00 | 0.00 | 0.00 | 97 | 1011.8 |
| 20260507061517 | 67 | 64 | 0.0 | 5.0 | 0.00 | 0.00 | 0.00 | 97 | 1012.0 |
| 20260507061017 | 67 | 114 | 0.0 | 3.0 | 0.00 | 0.00 | 0.00 | 97 | 1012.0 |
| 20260507060517 | 67 | 89 | 1.0 | 6.0 | 0.00 | 0.00 | 0.00 | 97 | 1011.8 |
| 20260507060017 | 67 | 92 | 0.0 | 4.0 | 0.00 | 0.00 | 0.00 | 97 | 1012.1 |
| 20260507055517 | 67 | 93 | 1.0 | 4.0 | 0.00 | 0.00 | 0.00 | 97 | 1011.8 |
| 20260507055018 | 67 | 102 | 1.0 | 4.0 | 0.00 | 0.00 | 0.00 | 97 | 1012.1 |
| 20260507054517 | 67 | 95 | 0.0 | 4.0 | 0.00 | 0.00 | 0.00 | 97 | 1012.5 |
| 20260507054017 | 67 | 80 | 0.0 | 1.0 | 0.00 | 0.00 | 0.00 | 97 | 1012.8 |
| 20260507053518 | 67 | 112 | 0.0 | 1.0 | 0.00 | 0.00 | 0.00 | 97 | 1012.7 |
| 20260507053017 | 67 | 92 | 0.0 | 2.0 | 0.00 | 0.00 | 0.00 | 97 | 1012.7 |
| 20260507052517 | 67 | 99 | 1.0 | 1.0 | 0.00 | 0.00 | 0.00 | 97 | 1012.7 |
| 20260507052017 | 67 | 356 | 0.0 | 1.0 | 0.00 | 0.00 | 0.00 | 97 | 1012.7 |
| 20260507051518 | 67 | 131 | 0.0 | 3.0 | 0.00 | 0.00 | 0.00 | 97 | 1012.6 |
| 20260507051017 | 67 | 80 | 2.0 | 7.0 | 0.00 | 0.00 | 0.00 | 97 | 1012.4 |
| 20260507050517 | 67 | 79 | 4.0 | 3.0 | 0.00 | 0.00 | 0.00 | 97 | 1012.6 |
| 20260507050017 | 67 | 23 | 1.0 | 4.0 | 0.00 | 0.00 | 0.00 | 97 | 1012.3 |
| 20260507045517 | 67 | 356 | 0.0 | 4.0 | 0.00 | 0.00 | 0.00 | 97 | 1012.2 |
| 20260507045017 | 67 | 14 | 2.0 | 4.0 | 0.00 | 0.00 | 0.00 | 97 | 1012.3 |
| 20260507044517 | 68 | 18 | 0.0 | 4.0 | 0.00 | 0.00 | 0.00 | 97 | 1012.3 |
| 20260507044017 | 68 | 349 | 0.0 | 4.0 | 0.00 | 0.00 | 0.00 | 97 | 1012.4 |
| 20260507043517 | 68 | 28 | 0.0 | 2.0 | 0.00 | 0.00 | 0.00 | 97 | 1012.8 |
| 20260507043018 | 68 | 78 | 0.0 | 4.0 | 0.00 | 0.00 | 0.00 | 97 | 1012.6 |
| 20260507042517 | 68 | 96 | 0.0 | 3.0 | 0.00 | 0.00 | 0.00 | 97 | 1012.8 |
| 20260507042018 | 68 | 110 | 0.0 | 4.0 | 0.00 | 0.00 | 0.00 | 97 | 1013.1 |
| 20260507041517 | 68 | 79 | 0.0 | 4.0 | 0.00 | 0.00 | 0.00 | 97 | 1013.1 |
| 20260507041017 | 68 | 49 | 0.0 | 3.0 | 0.00 | 0.00 | 0.00 | 97 | 1012.9 |
| 20260507040517 | 68 | 82 | 2.0 | 5.0 | 0.00 | 0.00 | 0.00 | 97 | 1012.7 |
| 20260507040017 | 68 | 107 | 4.0 | 5.0 | 0.00 | 0.00 | 0.00 | 97 | 1012.6 |
| 20260507035517 | 68 | 78 | 4.0 | 7.0 | 0.00 | 0.00 | 0.00 | 97 | 1011.8 |
| 20260507035017 | 68 | 0 | 3.0 | 0.0 | 0.00 | 0.00 | 0.00 | 97 | 1012.7 |
| 20260507034517 | 68 | 0 | 0.0 | 0.0 | 0.00 | 0.00 | 0.00 | 97 | 1012.9 |
| 20260507034017 | 68 | 346 | 0.0 | 4.0 | 0.00 | 0.00 | 0.00 | 97 | 1013.0 |
| 20260507033517 | 68 | 96 | 0.0 | 3.0 | 0.00 | 0.00 | 0.00 | 96 | 1012.3 |
| 20260507033018 | 68 | 96 | 1.0 | 5.0 | 0.00 | 0.00 | 0.00 | 96 | 1012.2 |
| 20260507032517 | 68 | 72 | 2.0 | 5.0 | 0.00 | 0.00 | 0.00 | 96 | 1011.5 |
| 20260507032017 | 68 | 90 | 1.0 | 4.0 | 0.00 | 0.00 | 0.00 | 96 | 1012.4 |
| 20260507031517 | 68 | 97 | 4.0 | 5.0 | 0.00 | 0.00 | 0.00 | 96 | 1013.2 |
| 20260507031018 | 68 | 0 | 0.0 | 0.0 | 0.00 | 0.00 | 0.00 | 96 | 1013.9 |
| 20260507030517 | 68 | 0 | 0.0 | 0.0 | 0.00 | 0.00 | 0.00 | 96 | 1014.1 |
| 20260507030017 | 68 | 330 | 0.0 | 2.0 | 0.00 | 0.00 | 0.00 | 96 | 1013.8 |
| 20260507025517 | 68 | 157 | 1.0 | 3.0 | 0.00 | 0.00 | 0.00 | 96 | 1013.1 |
| 20260507025017 | 68 | 0 | 0.0 | 0.0 | 0.00 | 0.00 | 0.00 | 96 | 1013.6 |
| 20260507024518 | 68 | 89 | 0.0 | 4.0 | 0.00 | 0.00 | 0.00 | 96 | 1013.3 |
| 20260507024017 | 68 | 75 | 3.0 | 4.0 | 0.00 | 0.00 | 0.00 | 96 | 1013.1 |
| 20260507023516 | 68 | 86 | 1.0 | 7.0 | 0.00 | 0.00 | 0.00 | 96 | 1012.7 |
| 20260507023017 | 68 | 16 | 4.0 | 7.0 | 0.00 | 0.00 | 0.00 | 96 | 1012.6 |
| 20260507022517 | 68 | 68 | 2.0 | 8.0 | 0.00 | 0.00 | 0.00 | 96 | 1012.7 |
| 20260507022017 | 68 | 123 | 0.0 | 7.0 | 0.00 | 0.00 | 0.00 | 96 | 1012.7 |
| 20260507021523 | 69 | 85 | 3.0 | 7.0 | 0.00 | 0.00 | 0.00 | 96 | 1012.8 |
| 20260507021017 | 69 | 25 | 2.0 | 12.0 | 0.00 | 0.00 | 0.00 | 96 | 1012.8 |
| 20260507020517 | 69 | 85 | 3.0 | 9.0 | 0.00 | 0.00 | 0.00 | 96 | 1012.5 |
| 20260507020017 | 70 | 25 | 3.0 | 15.0 | 0.00 | 0.00 | 0.00 | 96 | 1012.5 |
| 20260507015517 | 70 | 349 | 3.0 | 7.0 | 0.00 | 0.00 | 0.00 | 96 | 1013.0 |
| 20260507015017 | 71 | 328 | 3.0 | 9.0 | 0.00 | 0.00 | 0.00 | 96 | 1012.7 |
| 20260507014518 | 72 | 27 | 6.0 | 6.0 | 0.00 | 0.00 | 0.00 | 96 | 1012.7 |
| 20260507014017 | 72 | 20 | 4.0 | 11.0 | 0.00 | 0.00 | 0.00 | 96 | 1012.5 |
| 20260507013517 | 73 | 3 | 4.0 | 3.0 | 0.00 | 0.00 | 0.00 | 97 | 1012.1 |
| 20260507013017 | 73 | 0 | 0.0 | 0.0 | 0.00 | 0.00 | 0.00 | 97 | 1011.8 |
| 20260507012518 | 73 | 0 | 0.0 | 0.0 | 0.00 | 0.00 | 0.00 | 97 | 1012.1 |
| 20260507012017 | 73 | 0 | 0.0 | 0.0 | 0.00 | 0.00 | 0.00 | 97 | 1011.8 |
| 20260507011518 | 73 | 0 | 0.0 | 0.0 | 0.00 | 0.00 | 0.00 | 97 | 1012.1 |
| 20260507011017 | 73 | 0 | 0.0 | 0.0 | 0.00 | 0.00 | 0.00 | 97 | 1011.5 |
| 20260507010517 | 73 | 23 | 0.0 | 0.0 | 0.00 | 0.00 | 0.00 | 97 | 1011.1 |
| 20260507010017 | 73 | 0 | 0.0 | 0.0 | 0.00 | 0.00 | 0.00 | 97 | 1011.5 |
| 20260507005517 | 73 | 233 | 0.0 | 0.0 | 0.00 | 0.00 | 0.00 | 96 | 1011.4 |
| 20260507005017 | 73 | 274 | 0.0 | 2.0 | 0.00 | 0.00 | 0.00 | 96 | 1011.8 |
| 20260507004517 | 73 | 0 | 1.0 | 0.0 | 0.00 | 0.00 | 0.00 | 96 | 1012.0 |
| 20260507004018 | 73 | 216 | 0.0 | 1.0 | 0.00 | 0.00 | 0.00 | 96 | 1012.1 |
| 20260507003517 | 73 | 232 | 0.0 | 1.0 | 0.00 | 0.00 | 0.00 | 96 | 1012.0 |
| 20260507003017 | 73 | 0 | 0.0 | 0.0 | 0.00 | 0.00 | 0.00 | 96 | 1011.7 |
| 20260507002517 | 73 | 215 | 0.0 | 1.0 | 0.00 | 0.00 | 0.00 | 96 | 1011.5 |
| 20260507002017 | 73 | 0 | 0.0 | 0.0 | 0.00 | 0.00 | 0.00 | 96 | 1011.5 |
| 20260507001517 | 73 | 196 | 0.0 | 5.0 | 0.00 | 0.00 | 0.00 | 96 | 1011.7 |
| 20260507001018 | 73 | 260 | 0.0 | 2.0 | 0.00 | 0.00 | 0.00 | 96 | 1011.8 |
| 20260507000517 | 74 | 359 | 0.0 | 0.0 | 0.00 | 0.00 | 0.00 | 96 | 1012.0 |
| 20260507000017 | 74 | 0 | 0.0 | 0.0 | 0.00 | 0.00 | 0.00 | 96 | 1011.6 |
| 20260506235518 | 73 | 284 | 0.0 | 2.0 | 0.00 | 0.00 | 0.00 | 96 | 1011.8 |
| 20260506235017 | 74 | 260 | 1.0 | 3.0 | 0.00 | 0.00 | 0.00 | 96 | 1011.7 |
| 20260506234518 | 73 | 0 | 0.0 | 0.0 | 0.00 | 0.00 | 0.00 | 96 | 1011.4 |
| 20260506234018 | 73 | 240 | 0.0 | 2.0 | 0.00 | 0.00 | 0.00 | 96 | 1011.7 |
| 20260506233517 | 74 | 275 | 1.0 | 2.0 | 0.00 | 0.00 | 0.00 | 96 | 1012.1 |
| 20260506233018 | 73 | 198 | 0.0 | 3.0 | 0.00 | 0.00 | 0.00 | 96 | 1012.0 |
| 20260506232517 | 73 | 236 | 1.0 | 3.0 | 0.00 | 0.00 | 0.00 | 96 | 1012.1 |
| 20260506232017 | 74 | 203 | 0.0 | 4.0 | 0.00 | 0.00 | 0.00 | 96 | 1012.4 |
| 20260506231517 | 73 | 198 | 2.0 | 6.0 | 0.00 | 0.00 | 0.00 | 96 | 1012.5 |
| 20260506231018 | 74 | 192 | 3.0 | 4.0 | 0.00 | 0.00 | 0.00 | 96 | 1012.5 |
| 20260506230517 | 73 | 226 | 0.0 | 3.0 | 0.00 | 0.00 | 0.00 | 96 | 1012.5 |
| 20260506230017 | 73 | 270 | 1.0 | 3.0 | 0.00 | 0.00 | 0.00 | 96 | 1012.6 |
| 20260506225517 | 73 | 189 | 1.0 | 4.0 | 0.00 | 0.00 | 0.00 | 96 | 1012.5 |
| 20260506225017 | 73 | 217 | 2.0 | 5.0 | 0.00 | 0.00 | 0.00 | 96 | 1012.4 |
| 20260506224517 | 73 | 222 | 0.0 | 1.0 | 0.00 | 0.00 | 0.00 | 96 | 1012.4 |
| 20260506224017 | 73 | 257 | 0.0 | 3.0 | 0.00 | 0.00 | 0.00 | 96 | 1012.3 |
| 20260506223517 | 73 | 196 | 1.0 | 6.0 | 0.00 | 0.00 | 0.00 | 96 | 1012.0 |
| 20260506223017 | 73 | 195 | 3.0 | 7.0 | 0.00 | 0.00 | 0.00 | 96 | 1012.1 |
| 20260506222518 | 73 | 212 | 2.0 | 4.0 | 0.00 | 0.00 | 0.00 | 96 | 1012.2 |
| 20260506222017 | 73 | 230 | 1.0 | 3.0 | 0.00 | 0.00 | 0.00 | 96 | 1012.2 |
| 20260506221517 | 73 | 186 | 1.0 | 7.0 | 0.00 | 0.00 | 0.00 | 96 | 1012.2 |
| 20260506221017 | 73 | 227 | 0.0 | 1.0 | 0.00 | 0.00 | 0.00 | 96 | 1012.3 |
| 20260506220518 | 73 | 215 | 0.0 | 4.0 | 0.00 | 0.00 | 0.00 | 96 | 1012.4 |
| 20260506220017 | 73 | 263 | 2.0 | 4.0 | 0.00 | 0.00 | 0.00 | 96 | 1012.4 |
| 20260506215517 | 73 | 237 | 2.0 | 3.0 | 0.00 | 0.00 | 0.00 | 96 | 1012.4 |
| 20260506215017 | 73 | 227 | 0.0 | 4.0 | 0.00 | 0.00 | 0.00 | 96 | 1012.4 |
| 20260506214517 | 73 | 196 | 3.0 | 7.0 | 0.00 | 0.00 | 0.00 | 96 | 1012.5 |
| 20260506214017 | 73 | 189 | 1.0 | 9.0 | 0.00 | 0.00 | 0.00 | 95 | 1012.5 |
| 20260506213517 | 73 | 200 | 1.0 | 7.0 | 0.00 | 0.00 | 0.00 | 95 | 1012.4 |
| 20260506213017 | 73 | 227 | 1.0 | 5.0 | 0.00 | 0.00 | 0.00 | 95 | 1012.4 |
| 20260506212517 | 73 | 198 | 2.0 | 3.0 | 0.00 | 0.00 | 0.00 | 95 | 1012.5 |
| 20260506212017 | 73 | 191 | 3.0 | 7.0 | 0.00 | 0.00 | 0.00 | 95 | 1012.6 |
| 20260506211517 | 73 | 196 | 3.0 | 7.0 | 0.00 | 0.00 | 0.00 | 94 | 1012.6 |
| 20260506211018 | 73 | 213 | 2.0 | 5.0 | 0.00 | 0.00 | 0.00 | 93 | 1012.6 |
| 20260506210517 | 74 | 189 | 4.0 | 6.0 | 0.00 | 0.00 | 0.00 | 93 | 1012.7 |
| 20260506210017 | 74 | 199 | 0.0 | 3.0 | 0.00 | 0.00 | 0.00 | 92 | 1012.8 |
| 20260506205517 | 74 | 198 | 0.0 | 5.0 | 0.00 | 0.00 | 0.00 | 91 | 1012.8 |
| 20260506205017 | 74 | 203 | 3.0 | 6.0 | 0.00 | 0.00 | 0.00 | 90 | 1012.9 |
| 20260506204517 | 75 | 299 | 4.0 | 3.0 | 0.00 | 0.00 | 0.00 | 88 | 1012.8 |
| 20260506204017 | 75 | 261 | 0.0 | 3.0 | 0.00 | 0.00 | 0.00 | 86 | 1012.7 |
| 20260506203517 | 75 | 271 | 3.0 | 3.0 | 0.00 | 0.00 | 0.00 | 85 | 1012.7 |
| 20260506203017 | 76 | 227 | 2.0 | 4.0 | 0.00 | 0.00 | 0.00 | 83 | 1012.8 |
| 20260506202518 | 76 | 195 | 2.0 | 4.0 | 0.00 | 0.00 | 0.00 | 81 | 1012.9 |
| 20260506202017 | 76 | 226 | 3.0 | 6.0 | 0.00 | 0.00 | 0.00 | 80 | 1012.9 |
| 20260506201523 | 77 | 208 | 1.0 | 4.0 | 0.00 | 0.00 | 0.00 | 80 | 1013.0 |
| 20260506201017 | 77 | 193 | 1.0 | 8.0 | 0.00 | 0.00 | 0.00 | 80 | 1013.0 |
| 20260506200517 | 77 | 196 | 4.0 | 7.0 | 0.00 | 0.00 | 0.00 | 79 | 1013.1 |
| 20260506200017 | 77 | 206 | 2.0 | 8.0 | 0.00 | 0.00 | 0.00 | 78 | 1013.1 |
| 20260506195518 | 77 | 258 | 1.0 | 6.0 | 0.00 | 0.00 | 0.00 | 78 | 1013.2 |
| 20260506195017 | 77 | 200 | 2.0 | 5.0 | 0.00 | 0.00 | 0.00 | 77 | 1013.4 |
| 20260506194517 | 77 | 251 | 2.0 | 5.0 | 0.00 | 0.00 | 0.00 | 77 | 1013.5 |
| 20260506194017 | 77 | 188 | 4.0 | 10.0 | 0.00 | 0.00 | 0.00 | 78 | 1013.6 |
| 20260506193517 | 77 | 254 | 3.0 | 6.0 | 0.00 | 0.00 | 0.00 | 78 | 1013.7 |
| 20260506193018 | 77 | 189 | 1.0 | 4.0 | 0.00 | 0.00 | 0.00 | 78 | 1013.8 |
| 20260506192517 | 77 | 193 | 3.0 | 7.0 | 0.00 | 0.00 | 0.00 | 78 | 1014.0 |
| 20260506192018 | 77 | 243 | 2.0 | 6.0 | 0.00 | 0.00 | 0.00 | 78 | 1014.0 |
| 20260506191518 | 77 | 236 | 0.0 | 5.0 | 0.00 | 0.00 | 0.00 | 78 | 1014.0 |
| 20260506191018 | 77 | 208 | 3.0 | 7.0 | 0.00 | 0.00 | 0.00 | 77 | 1014.0 |
| 20260506190518 | 77 | 206 | 3.0 | 8.0 | 0.00 | 0.00 | 0.00 | 77 | 1014.1 |
| 20260506190018 | 77 | 203 | 5.0 | 7.0 | 0.00 | 0.00 | 0.00 | 76 | 1014.1 |
| 20260506185517 | 77 | 257 | 1.0 | 5.0 | 0.00 | 0.00 | 0.00 | 77 | 1014.1 |
| 20260506185017 | 77 | 198 | 3.0 | 4.0 | 0.00 | 0.00 | 0.00 | 77 | 1014.2 |
| 20260506184517 | 77 | 191 | 3.0 | 4.0 | 0.00 | 0.00 | 0.00 | 77 | 1014.2 |
| 20260506184017 | 77 | 233 | 2.0 | 3.0 | 0.00 | 0.00 | 0.00 | 77 | 1014.2 |
| 20260506183517 | 77 | 257 | 2.0 | 3.0 | 0.00 | 0.00 | 0.00 | 77 | 1014.2 |
| 20260506183017 | 77 | 191 | 1.0 | 5.0 | 0.00 | 0.00 | 0.00 | 77 | 1014.2 |
| 20260506182517 | 76 | 186 | 3.0 | 6.0 | 0.00 | 0.00 | 0.00 | 77 | 1014.4 |
| 20260506182017 | 77 | 200 | 3.0 | 9.0 | 0.00 | 0.00 | 0.00 | 77 | 1014.5 |
| 20260506181518 | 77 | 188 | 3.0 | 10.0 | 0.00 | 0.00 | 0.00 | 76 | 1014.3 |
| 20260506181017 | 77 | 199 | 5.0 | 8.0 | 0.00 | 0.00 | 0.00 | 76 | 1014.4 |
| 20260506180517 | 77 | 193 | 4.0 | 9.0 | 0.00 | 0.00 | 0.00 | 75 | 1014.3 |
| 20260506180017 | 77 | 203 | 5.0 | 12.0 | 0.00 | 0.00 | 0.00 | 74 | 1014.4 |
| 20260506175517 | 77 | 216 | 1.0 | 7.0 | 0.00 | 0.00 | 0.00 | 75 | 1014.4 |
| 20260506175017 | 77 | 202 | 2.0 | 7.0 | 0.00 | 0.00 | 0.00 | 75 | 1014.5 |
| 20260506174517 | 77 | 195 | 4.0 | 11.0 | 0.00 | 0.00 | 0.00 | 74 | 1014.4 |
| 20260506174017 | 77 | 191 | 4.0 | 11.0 | 0.00 | 0.00 | 0.00 | 74 | 1014.6 |
| 20260506173517 | 77 | 299 | 6.0 | 9.0 | 0.00 | 0.00 | 0.00 | 74 | 1014.4 |
| 20260506173018 | 78 | 203 | 3.0 | 8.0 | 0.00 | 0.00 | 0.00 | 73 | 1014.6 |
| 20260506172517 | 78 | 215 | 5.0 | 8.0 | 0.00 | 0.00 | 0.00 | 73 | 1014.7 |
| 20260506172018 | 78 | 191 | 3.0 | 12.0 | 0.00 | 0.00 | 0.00 | 72 | 1014.7 |
| 20260506171517 | 78 | 202 | 3.0 | 10.0 | 0.00 | 0.00 | 0.00 | 71 | 1014.6 |
| 20260506171017 | 78 | 184 | 2.0 | 11.0 | 0.00 | 0.00 | 0.00 | 72 | 1014.6 |
| 20260506170518 | 78 | 202 | 5.0 | 9.0 | 0.00 | 0.00 | 0.00 | 71 | 1014.6 |
| 20260506170018 | 78 | 193 | 8.0 | 16.0 | 0.00 | 0.00 | 0.00 | 71 | 1014.5 |
| 20260506165518 | 78 | 200 | 6.0 | 11.0 | 0.00 | 0.00 | 0.00 | 72 | 1014.6 |
| 20260506165018 | 78 | 236 | 3.0 | 8.0 | 0.00 | 0.00 | 0.00 | 72 | 1014.5 |
| 20260506164518 | 78 | 189 | 5.0 | 10.0 | 0.00 | 0.00 | 0.00 | 72 | 1014.7 |
| 20260506164018 | 77 | 254 | 3.0 | 7.0 | 0.00 | 0.00 | 0.00 | 72 | 1014.7 |
| 20260506163518 | 78 | 195 | 6.0 | 10.0 | 0.00 | 0.00 | 0.00 | 73 | 1014.7 |
| 20260506163018 | 77 | 192 | 6.0 | 7.0 | 0.00 | 0.00 | 0.00 | 72 | 1014.7 |
| 20260506162518 | 77 | 203 | 3.0 | 15.0 | 0.00 | 0.00 | 0.00 | 71 | 1014.6 |
| 20260506162018 | 77 | 193 | 3.0 | 12.0 | 0.00 | 0.00 | 0.00 | 72 | 1014.7 |
| 20260506161518 | 77 | 181 | 3.0 | 8.0 | 0.00 | 0.00 | 0.00 | 72 | 1014.6 |
| 20260506161018 | 77 | 203 | 7.0 | 10.0 | 0.00 | 0.00 | 0.00 | 72 | 1014.7 |
| 20260506160518 | 77 | 278 | 5.0 | 6.0 | 0.00 | 0.00 | 0.00 | 72 | 1014.7 |
| 20260506160017 | 77 | 202 | 6.0 | 8.0 | 0.00 | 0.00 | 0.00 | 73 | 1014.5 |
| 20260506155518 | 77 | 193 | 3.0 | 8.0 | 0.00 | 0.00 | 0.00 | 73 | 1014.7 |
| 20260506155017 | 77 | 261 | 3.0 | 7.0 | 0.00 | 0.00 | 0.00 | 74 | 1014.8 |
| 20260506154517 | 76 | 253 | 5.0 | 7.0 | 0.00 | 0.00 | 0.00 | 75 | 1014.7 |
| 20260506154017 | 76 | 215 | 3.0 | 7.0 | 0.00 | 0.00 | 0.00 | 75 | 1014.8 |
| 20260506153517 | 76 | 236 | 3.0 | 6.0 | 0.00 | 0.00 | 0.00 | 76 | 1014.8 |
| 20260506153017 | 75 | 196 | 2.0 | 7.0 | 0.00 | 0.00 | 0.00 | 76 | 1014.8 |
| 20260506152517 | 75 | 208 | 2.0 | 8.0 | 0.00 | 0.00 | 0.00 | 78 | 1014.9 |
| 20260506152017 | 74 | 179 | 6.0 | 5.0 | 0.00 | 0.00 | 0.00 | 79 | 1015.0 |
| 20260506151517 | 74 | 292 | 2.0 | 5.0 | 0.00 | 0.00 | 0.00 | 78 | 1014.9 |
| 20260506151018 | 74 | 199 | 3.0 | 10.0 | 0.00 | 0.00 | 0.00 | 78 | 1015.0 |
| 20260506150517 | 74 | 185 | 6.0 | 8.0 | 0.00 | 0.00 | 0.00 | 78 | 1015.1 |
| 20260506150017 | 74 | 215 | 4.0 | 4.0 | 0.00 | 0.00 | 0.00 | 80 | 1015.1 |
| 20260506145517 | 73 | 189 | 2.0 | 8.0 | 0.00 | 0.00 | 0.00 | 79 | 1015.1 |
| 20260506145017 | 73 | 196 | 4.0 | 10.0 | 0.00 | 0.00 | 0.00 | 79 | 1015.3 |
| 20260506144517 | 73 | 226 | 4.0 | 8.0 | 0.00 | 0.00 | 0.00 | 79 | 1015.3 |
| 20260506144017 | 73 | 202 | 4.0 | 5.0 | 0.00 | 0.00 | 0.00 | 81 | 1015.2 |
| 20260506143517 | 73 | 213 | 3.0 | 8.0 | 0.00 | 0.00 | 0.00 | 81 | 1015.2 |
| 20260506143017 | 72 | 199 | 3.0 | 10.0 | 0.00 | 0.00 | 0.00 | 82 | 1015.1 |
| 20260506142518 | 72 | 196 | 4.0 | 9.0 | 0.00 | 0.00 | 0.00 | 82 | 1015.1 |
| 20260506142018 | 72 | 186 | 4.0 | 9.0 | 0.00 | 0.00 | 0.00 | 82 | 1015.1 |
| 20260506141518 | 72 | 202 | 3.0 | 11.0 | 0.00 | 0.00 | 0.00 | 83 | 1015.0 |
| 20260506141018 | 72 | 215 | 3.0 | 7.0 | 0.00 | 0.00 | 0.00 | 83 | 1015.1 |
| 20260506140518 | 71 | 301 | 2.0 | 5.0 | 0.00 | 0.00 | 0.00 | 84 | 1015.1 |
| 20260506140018 | 71 | 227 | 2.0 | 7.0 | 0.00 | 0.00 | 0.00 | 84 | 1015.1 |
| 20260506135518 | 71 | 198 | 3.0 | 5.0 | 0.00 | 0.00 | 0.00 | 84 | 1015.1 |
| 20260506135017 | 71 | 199 | 2.0 | 7.0 | 0.00 | 0.00 | 0.00 | 85 | 1015.2 |
| 20260506134517 | 71 | 268 | 7.0 | 6.0 | 0.00 | 0.00 | 0.00 | 86 | 1015.3 |
| 20260506134017 | 71 | 188 | 3.0 | 11.0 | 0.00 | 0.00 | 0.00 | 86 | 1015.3 |
| 20260506133517 | 70 | 195 | 3.0 | 9.0 | 0.00 | 0.00 | 0.00 | 86 | 1015.3 |
| 20260506133017 | 70 | 257 | 1.0 | 6.0 | 0.00 | 0.00 | 0.00 | 87 | 1015.3 |
| 20260506132517 | 70 | 193 | 2.0 | 6.0 | 0.00 | 0.00 | 0.00 | 87 | 1015.4 |
| 20260506132017 | 70 | 188 | 0.0 | 4.0 | 0.00 | 0.00 | 0.00 | 87 | 1015.4 |
| 20260506131517 | 70 | 196 | 1.0 | 7.0 | 0.00 | 0.00 | 0.00 | 87 | 1015.4 |
| 20260506131017 | 69 | 215 | 0.0 | 7.0 | 0.00 | 0.00 | 0.00 | 88 | 1015.5 |
| 20260506130517 | 69 | 127 | 1.0 | 5.0 | 0.00 | 0.00 | 0.00 | 88 | 1015.5 |
| 20260506130017 | 69 | 192 | 3.0 | 4.0 | 0.00 | 0.00 | 0.00 | 88 | 1015.5 |
| 20260506125518 | 69 | 202 | 0.0 | 6.0 | 0.00 | 0.00 | 0.00 | 88 | 1015.3 |
| 20260506125017 | 69 | 217 | 2.0 | 5.0 | 0.00 | 0.00 | 0.00 | 89 | 1015.3 |
| 20260506124516 | 69 | 184 | 2.0 | 8.0 | 0.00 | 0.00 | 0.00 | 89 | 1015.4 |
| 20260506124017 | 69 | 205 | 3.0 | 5.0 | 0.00 | 0.00 | 0.00 | 88 | 1015.3 |
| 20260506123517 | 69 | 302 | 4.0 | 6.0 | 0.00 | 0.00 | 0.00 | 89 | 1015.4 |
| 20260506123017 | 69 | 215 | 3.0 | 7.0 | 0.00 | 0.00 | 0.00 | 89 | 1015.2 |
| 20260506122517 | 69 | 215 | 3.0 | 7.0 | 0.00 | 0.00 | 0.00 | 88 | 1015.3 |
| 20260506122017 | 69 | 181 | 3.0 | 8.0 | 0.00 | 0.00 | 0.00 | 89 | 1015.2 |
| 20260506121517 | 68 | 195 | 3.0 | 8.0 | 0.00 | 0.00 | 0.00 | 88 | 1015.0 |
| 20260506121017 | 68 | 206 | 2.0 | 4.0 | 0.00 | 0.00 | 0.00 | 88 | 1014.9 |
| 20260506120517 | 68 | 196 | 4.0 | 7.0 | 0.00 | 0.00 | 0.00 | 88 | 1014.7 |
| 20260506120018 | 68 | 186 | 2.0 | 5.0 | 0.00 | 0.00 | 0.00 | 88 | 1014.7 |
| 20260506115517 | 68 | 226 | 2.0 | 5.0 | 0.00 | 0.00 | 0.00 | 88 | 1014.5 |
| 20260506115017 | 68 | 217 | 2.0 | 5.0 | 0.00 | 0.00 | 0.00 | 88 | 1014.4 |